Date,TemperatureHighF,TemperatureAvgF,TemperatureLowF,DewpointHighF,DewpointAvgF,DewpointLowF,HumidityHigh,HumidityAvg,HumidityLow,PressureMaxIn,PressureMinIn,WindSpeedMaxMPH,WindSpeedAvgMPH,GustSpeedMaxMPH,PrecipitationSumIn
2013-1-1,42.1,39.2,35.8,34.6,32.5,30.2,80,77,66,0.00,0.00,8,8,0,0.00
2013-1-2,46.2,40.3,33.4,38.4,34.3,29.1,85,79,68,0.00,0.00,8,8,0,0.00
2013-1-3,45.5,44.6,43.7,42.5,40.8,38.3,89,86,81,0.00,0.00,8,8,0,0.08
2013-1-4,50.2,48.9,47.8,44.9,43.0,40.0,85,80,73,0.00,0.00,8,8,0,0.00
2013-1-5,48.6,47.5,45.9,42.9,41.0,39.1,84,78,73,0.00,0.00,8,8,0,0.01
2013-1-6,46.8,45.9,45.0,41.8,40.2,37.9,85,81,74,0.00,0.00,8,8,0,0.00
2013-1-7,47.3,44.5,41.7,39.0,37.0,35.3,82,75,65,0.00,0.00,8,8,0,0.00
2013-1-8,41.9,40.3,37.9,36.2,34.6,33.1,83,80,77,0.00,0.00,8,8,0,0.00
2013-1-9,41.2,38.7,37.0,37.6,34.1,32.1,87,83,79,0.00,0.00,8,8,0,0.10
2013-1-10,45.5,42.6,39.6,42.2,39.4,36.3,90,88,87,0.00,0.00,8,8,0,0.10
2013-1-11,44.8,40.7,34.0,41.4,33.6,28.5,89,76,58,0.00,0.00,8,8,0,0.07
2013-1-12,42.8,38.4,32.7,34.8,32.3,27.6,87,79,68,0.00,0.00,8,8,0,0.01
2013-1-13,39.7,36.8,30.9,34.1,31.6,25.2,84,81,76,0.00,0.00,8,8,0,0.03
2013-1-14,33.1,29.9,26.6,28.7,20.7,17.5,86,68,55,0.00,0.00,12,6,0,0.00
2013-1-15,35.1,33.0,30.6,31.2,28.5,24.4,89,83,73,0.00,0.00,6,6,0,0.23
2013-1-16,32.4,27.5,21.4,28.4,18.4,12.0,85,69,49,0.00,0.00,11,6,0,0.17
2013-1-17,29.3,22.6,18.0,17.7,13.4,8.6,75,68,55,0.00,0.00,8,4,0,0.01
2013-1-18,29.5,24.4,18.3,18.2,14.9,8.9,73,67,59,0.00,0.00,1,1,0,0.00
2013-1-19,30.0,29.8,29.3,23.3,22.9,22.6,78,75,74,0.00,0.00,1,1,0,0.00
2013-1-20,31.5,28.2,26.1,27.5,21.7,18.7,85,76,70,0.00,0.00,1,1,0,0.00
2013-1-21,35.8,33.1,31.3,28.9,28.1,26.6,87,82,70,0.00,0.00,1,1,0,0.01
2013-1-22,36.7,33.8,31.6,31.5,29.3,27.7,87,84,77,0.00,0.00,1,1,0,0.29
2013-1-23,40.1,36.6,34.9,34.1,31.8,30.2,87,83,74,0.00,0.00,1,1,0,0.25
2013-1-24,35.4,34.3,30.6,30.6,29.2,23.0,85,81,73,0.00,0.00,1,1,0,0.02
2013-1-25,29.3,28.0,26.4,20.1,19.2,18.3,74,69,67,0.00,0.00,1,1,0,0.00
2013-1-26,35.4,30.4,25.7,30.3,23.7,18.0,88,76,69,0.00,0.00,1,1,0,0.00
2013-1-27,44.6,38.1,33.4,40.5,34.3,30.3,90,86,78,0.00,0.00,1,1,0,0.29
2013-1-28,47.5,40.6,32.7,39.6,34.0,29.6,89,78,60,0.00,0.00,1,1,0,0.04
2013-1-29,52.3,49.7,47.7,47.3,43.7,39.8,84,80,73,0.00,0.00,1,1,0,0.16
2013-1-30,54.9,53.5,52.0,50.1,46.0,33.8,86,76,49,0.00,0.00,1,1,0,0.15
2013-1-31,47.1,45.8,45.1,40.1,38.3,37.0,79,75,72,0.00,0.00,1,1,0,0.00
2013-2-1,49.3,45.9,41.0,45.0,40.8,32.0,87,82,70,0.00,0.00,1,1,0,0.61
2013-2-2,43.2,38.1,33.8,33.8,30.0,26.0,82,73,54,0.00,0.00,1,1,0,0.02
2013-2-3,41.4,36.0,29.8,37.1,27.7,23.2,87,72,49,0.00,0.00,1,1,0,0.11
2013-2-4,51.3,46.3,40.8,46.1,39.1,30.5,90,77,54,0.00,0.00,1,1,0,0.07
2013-2-5,44.8,40.5,34.2,35.9,30.4,21.9,80,67,47,0.00,0.00,21,9,0,0.16
2013-2-6,44.2,39.0,35.1,34.1,28.9,21.5,85,68,42,0.00,0.00,21,21,0,0.36
2013-2-7,41.2,37.1,34.2,30.1,25.9,21.0,80,64,47,0.00,0.00,21,21,0,0.02
2013-2-8,40.1,34.3,28.2,29.5,26.3,22.9,82,73,54,0.00,0.00,21,16,0,0.01
2013-2-9,38.5,33.4,27.9,29.2,26.0,21.2,83,74,59,0.00,0.00,12,8,0,0.21
2013-2-10,36.3,32.0,27.1,31.6,25.4,20.6,87,77,61,0.00,0.00,4,4,0,0.12
2013-2-11,45.3,40.5,35.2,41.9,35.7,31.6,92,83,64,0.00,0.00,4,4,0,0.26
2013-2-12,38.3,35.7,32.9,31.7,26.9,19.8,85,71,54,0.00,0.00,4,4,0,0.01
2013-2-13,35.8,32.6,29.1,20.2,16.9,14.6,59,52,43,0.00,0.00,4,4,0,0.00
2013-2-14,39.7,34.0,29.5,36.5,26.8,15.8,88,75,56,0.00,0.00,4,4,0,0.29
2013-2-15,69.4,42.5,34.5,40.6,34.1,27.6,89,74,35,0.00,0.00,14,8,0,0.00
2013-2-16,47.7,37.7,28.6,34.1,28.5,22.0,78,70,49,0.00,0.00,11,11,0,0.00
2013-2-17,43.3,35.5,30.9,30.5,27.7,24.9,85,74,55,0.00,0.00,11,10,0,0.00
2013-2-18,42.3,35.5,29.8,28.2,25.7,24.0,82,68,49,0.00,0.00,12,9,0,0.00
2013-2-19,46.4,39.2,27.0,27.3,24.7,20.4,77,57,37,0.00,0.00,8,2,0,0.00
2013-2-20,37.4,32.7,30.0,28.7,25.6,23.1,79,75,70,0.00,0.00,0,0,0,0.00
2013-2-21,36.3,34.2,31.1,15.6,9.8,3.4,52,36,25,0.00,0.00,13,13,0,0.00
2013-2-22,30.9,29.4,28.2,13.5,11.9,10.1,53,47,41,0.00,0.00,13,13,0,0.00
2013-2-23,28.8,26.5,23.0,19.3,13.3,10.2,72,57,48,0.00,0.00,13,13,0,0.00
2013-2-24,33.3,29.9,26.6,25.7,22.3,19.2,79,73,67,0.00,0.00,13,13,0,0.02
2013-2-25,35.8,32.7,31.3,29.1,27.2,25.7,85,80,72,0.00,0.00,13,13,0,0.16
2013-2-26,40.5,35.3,32.7,29.4,27.0,23.4,85,72,52,0.00,0.00,13,13,0,0.14
2013-2-27,38.5,36.2,34.5,32.8,31.0,28.4,86,81,76,0.00,0.00,13,13,0,0.02
2013-2-28,38.5,35.7,34.5,30.4,28.4,26.4,83,75,64,0.00,0.00,13,13,0,0.00
2013-3-1,72.7,37.6,35.2,29.2,26.1,-6.6,76,69,4,0.00,0.00,13,13,0,0.00
2013-3-2,36.7,36.0,35.2,22.0,21.4,20.7,58,55,53,0.00,0.00,13,13,0,0.00
2013-3-3,46.4,37.3,30.0,27.1,23.7,21.3,71,59,41,0.00,0.00,18,10,0,0.00
2013-3-4,53.8,42.1,31.5,34.6,28.0,23.8,74,58,42,0.00,0.00,16,8,0,0.00
2013-3-5,59.9,49.4,39.9,32.0,28.8,24.2,63,46,26,0.00,0.00,16,8,0,0.00
2013-3-6,62.6,53.2,47.7,32.0,29.8,27.0,51,41,26,0.00,0.00,6,6,0,0.00
2013-3-7,55.9,50.1,48.2,44.8,42.1,40.7,78,74,66,0.00,0.00,6,6,0,0.00
2013-3-8,54.3,50.6,47.1,48.3,44.7,41.8,83,80,76,0.00,0.00,6,6,0,0.29
2013-3-9,60.3,50.9,43.7,46.6,40.3,33.4,87,69,38,0.00,0.00,10,8,0,0.01
2013-3-10,47.3,42.6,37.6,39.9,34.5,28.3,88,73,61,0.00,0.00,10,10,0,0.00
2013-3-11,36.3,35.7,34.7,32.0,31.5,30.6,86,84,83,0.00,0.00,10,10,0,0.26
2013-3-12,34.9,29.5,25.5,31.4,23.7,19.6,87,79,72,0.00,0.00,10,10,0,0.31
2013-3-13,36.5,28.2,17.8,25.8,17.7,8.6,78,65,45,0.00,0.00,10,10,0,0.24
2013-3-14,39.7,33.7,29.5,26.5,22.3,15.0,79,64,36,0.00,0.00,16,10,0,0.05
2013-3-15,44.2,35.1,24.1,24.2,19.4,10.3,74,54,28,0.00,0.00,19,12,0,0.00
2013-3-16,47.8,40.0,33.8,35.5,22.5,16.3,80,51,32,0.00,0.00,14,14,0,0.17
2013-3-17,49.1,42.2,36.0,37.0,34.3,28.5,84,74,58,0.00,0.00,14,14,0,0.03
2013-3-18,48.4,39.9,32.7,36.5,30.8,26.3,82,70,50,0.00,0.00,14,14,0,0.15
2013-3-19,49.8,42.1,36.1,36.1,33.5,28.9,84,72,46,0.00,0.00,14,14,0,0.19
2013-3-20,50.2,42.4,34.7,37.0,32.4,27.1,85,69,43,0.00,0.00,14,14,0,0.09
2013-3-21,50.0,41.6,31.3,34.4,30.8,24.3,82,66,52,0.00,0.00,14,14,0,0.00
2013-3-22,57.2,47.4,39.6,31.8,29.2,27.1,64,51,32,0.00,0.00,20,15,0,0.00
2013-3-23,50.4,45.2,42.3,34.8,32.8,32.0,68,62,51,0.00,0.00,20,20,0,0.00
2013-3-24,48.0,41.8,39.0,33.7,29.8,20.7,79,63,47,0.00,0.00,20,20,0,0.16
2013-3-25,47.1,40.9,36.9,21.7,17.7,12.2,50,39,29,0.00,0.00,20,20,0,0.00
2013-3-26,44.4,38.7,34.3,20.1,16.1,13.1,49,40,29,0.00,0.00,20,20,0,0.00
2013-3-27,44.8,38.2,32.2,20.0,17.1,14.6,59,42,31,0.00,0.00,20,20,0,0.00
2013-3-28,68.0,37.9,30.4,39.3,21.2,15.0,67,52,31,0.00,0.00,20,20,0,0.00
2013-3-29,68.0,36.3,26.2,39.3,17.9,14.8,69,49,30,0.00,0.00,20,20,0,0.00
2013-3-30,43.2,36.9,31.8,20.3,18.3,15.4,57,47,37,0.00,0.00,20,20,0,0.00
2013-3-31,44.1,36.2,27.7,23.2,18.0,13.2,73,49,30,0.00,0.00,20,20,0,0.00
2013-4-1,48.7,39.5,30.2,21.9,16.6,10.1,60,41,25,0.00,0.00,20,20,0,0.00
2013-4-2,50.5,40.7,30.9,17.8,14.0,7.9,53,35,20,0.00,0.00,20,20,0,0.00
2013-4-3,47.8,40.2,32.4,24.7,18.5,-6.8,54,42,10,0.00,0.00,20,20,0,0.00
2013-4-4,47.1,41.2,34.2,28.1,22.9,18.7,75,50,32,0.00,0.00,20,19,0,0.06
2013-4-5,49.5,43.0,37.9,27.0,23.7,21.4,62,47,35,0.00,0.00,17,17,0,0.06
2013-4-6,47.1,40.2,32.5,26.3,22.9,14.6,62,50,40,0.00,0.00,17,17,0,0.06
2013-4-10,58.1,51.3,45.9,45.6,39.1,33.4,82,64,41,0.00,0.00,17,14,0,0.17
2013-4-11,59.2,53.9,50.4,49.0,44.0,38.7,86,70,48,0.00,0.00,17,11,0,0.06
2013-4-12,60.4,51.1,44.8,45.2,40.1,32.3,79,67,40,0.00,0.00,11,11,0,0.25
2013-4-13,60.3,51.0,42.3,46.9,40.7,36.9,83,69,46,0.00,0.00,11,11,0,0.08
2013-4-14,78.4,64.4,53.2,46.2,42.3,36.0,74,48,22,0.00,0.00,20,12,0,0.00
2013-4-15,70.5,60.5,51.8,49.9,46.0,42.6,73,60,39,0.00,0.00,13,9,0,0.01
2013-4-16,68.2,59.1,50.4,46.7,43.1,38.3,77,57,36,0.00,0.00,0,0,0,0.00
2013-4-17,78.3,65.3,54.0,46.7,43.8,38.1,73,49,25,0.00,0.00,15,4,0,0.00
2013-4-18,66.0,61.2,56.3,49.3,39.6,24.6,67,48,21,0.00,0.00,24,10,0,0.00
2013-4-20,55.8,50.5,46.2,30.6,27.0,25.7,50,40,34,0.00,0.00,12,12,0,4.23
2013-4-21,62.6,49.4,38.7,34.1,28.6,23.4,79,48,24,0.00,0.00,12,12,0,0.00
2013-4-22,61.2,50.5,37.6,36.4,31.8,22.3,75,51,31,0.00,0.00,12,12,0,0.00
2013-4-23,66.9,54.6,41.5,42.9,39.0,33.9,76,57,40,0.00,0.00,12,12,0,0.00
2013-4-24,74.8,59.7,43.3,45.7,41.9,36.6,78,55,31,0.00,0.00,12,12,0,0.00
2013-4-25,79.3,64.4,48.2,46.6,42.4,35.6,75,49,21,0.00,0.00,12,12,0,0.00
2013-4-26,66.7,56.7,43.9,48.5,43.9,35.8,83,63,42,0.00,0.00,12,12,0,0.02
2013-4-27,54.1,47.9,41.7,37.7,29.9,19.4,81,53,26,0.00,0.00,12,12,0,0.11
2013-4-28,56.3,48.0,40.5,36.0,30.1,22.9,75,52,28,0.00,0.00,12,12,0,0.00
2013-4-29,63.1,50.0,34.5,35.7,30.3,17.1,77,51,20,0.00,0.00,12,12,0,0.00
2013-4-30,57.4,49.9,45.1,42.4,32.4,15.4,82,53,28,0.00,0.00,12,12,0,0.22
2013-5-1,83.1,52.0,45.7,76.3,44.8,40.5,88,77,56,0.00,0.00,12,12,0,0.34
2013-5-2,68.4,56.6,48.9,49.0,45.4,39.2,90,69,35,0.00,0.00,14,8,0,0.00
2013-5-3,64.2,54.3,46.8,51.1,44.1,34.7,87,70,45,0.00,0.00,16,7,0,0.09
2013-5-4,64.9,59.9,56.1,43.7,40.2,37.5,63,49,38,0.00,0.00,14,4,0,0.00
2013-5-5,70.5,60.3,51.6,44.7,42.3,37.1,75,53,32,0.00,0.00,12,3,0,0.00
2013-5-6,67.8,55.7,46.8,48.9,42.8,38.5,82,64,36,0.00,0.00,12,3,0,0.12
2013-5-7,73.9,60.2,48.4,49.8,45.4,40.0,82,61,31,0.00,0.00,12,2,0,0.00
2013-5-8,70.2,59.5,50.7,58.5,50.9,44.0,84,74,55,0.00,0.00,16,5,0,0.25
2013-5-9,66.0,58.7,51.8,52.0,41.4,34.9,76,54,32,0.00,0.00,24,7,0,0.00
2013-5-10,60.4,52.9,45.3,44.6,41.2,36.8,75,65,52,0.00,0.00,17,6,0,0.00
2013-5-11,67.6,57.2,48.9,47.4,40.1,32.3,81,56,29,0.00,0.00,21,10,0,0.00
2013-5-12,61.0,50.4,46.8,42.4,38.1,28.4,72,64,29,0.00,0.00,21,7,0,0.04
2013-5-13,63.9,60.7,53.2,49.4,43.5,40.6,76,54,46,0.00,0.00,19,10,0,0.00
2013-5-14,58.1,52.8,50.7,44.6,40.6,36.8,72,63,46,0.00,0.00,14,9,0,0.00
2013-5-17,56.1,51.9,49.1,39.3,38.8,37.8,68,61,51,0.00,0.00,6,2,0,0.00
2013-5-18,61.9,53.3,44.8,48.2,41.4,38.7,85,66,45,0.00,0.00,15,4,0,0.00
2013-5-19,53.4,53.0,52.7,48.4,47.9,47.5,83,83,82,0.00,0.00,4,4,0,0.02
2013-5-20,55.0,52.2,50.4,50.3,47.8,46.6,88,85,81,0.00,0.00,4,4,0,0.82
2013-5-21,53.1,51.6,50.0,49.0,47.5,45.7,89,86,78,0.00,0.00,4,4,0,0.23
2013-5-22,59.9,53.2,47.3,46.1,39.8,34.9,87,62,44,0.00,0.00,17,6,0,0.00
2013-5-23,56.3,50.1,41.7,44.7,36.6,22.3,81,62,27,0.00,0.00,30,7,0,0.14
2013-5-24,53.1,44.5,36.5,41.2,37.5,32.4,87,77,56,0.00,0.00,17,8,0,0.23
2013-5-25,60.3,49.7,42.3,40.7,36.9,28.6,87,64,30,0.00,0.00,22,5,0,0.15
2013-5-26,69.4,54.8,43.3,48.9,37.5,24.6,82,55,24,0.00,0.00,18,7,0,0.00
2013-5-27,70.5,58.1,39.4,48.9,36.9,30.9,77,49,25,0.00,0.00,12,3,0,0.13
2013-5-28,61.5,55.4,51.1,51.2,44.1,38.3,79,66,45,0.00,0.00,15,7,0,0.25
2013-5-29,64.2,54.4,44.2,45.3,39.0,30.9,83,59,31,0.00,0.00,15,4,0,2.22
2013-5-30,61.7,53.8,49.3,50.6,47.1,44.3,86,78,60,0.00,0.00,15,4,0,0.61
2013-5-31,64.2,56.5,51.3,49.6,48.0,45.9,87,74,57,0.00,0.00,24,10,0,2.83
2013-6-1,72.3,61.0,51.8,50.0,46.2,41.5,85,61,35,0.00,0.00,21,13,0,2.83
2013-6-2,70.9,58.5,49.5,45.2,39.6,34.1,75,52,31,0.00,0.00,20,9,0,0.00
2013-6-3,65.7,53.5,46.4,40.4,39.0,34.7,75,59,34,0.00,0.00,18,6,0,0.00
2013-6-4,67.5,56.4,46.0,42.0,39.7,26.3,83,57,29,0.00,0.00,21,10,0,0.00
2013-6-5,82.6,67.5,50.7,47.8,44.7,40.1,82,48,26,0.00,0.00,16,7,0,0.00
2013-6-6,85.5,71.2,56.8,53.1,49.3,44.7,75,49,26,0.00,0.00,15,5,0,0.05
2013-6-7,91.2,74.3,61.0,52.9,45.8,37.6,63,40,20,0.00,0.00,20,8,0,0.00
2013-6-8,83.7,70.2,59.5,56.6,50.9,44.3,72,52,35,0.00,0.00,18,9,0,0.06
2013-6-9,67.6,59.6,55.4,54.5,51.9,49.9,83,76,59,0.00,0.00,14,6,0,0.65
2013-6-10,70.0,59.1,52.3,52.2,48.2,46.4,84,69,45,0.00,0.00,10,4,0,0.00
2013-6-11,73.2,65.3,55.9,54.1,51.2,42.0,82,62,41,0.00,0.00,13,5,0,0.00
2013-6-12,74.3,66.0,60.1,60.4,56.2,53.3,82,71,52,0.00,0.00,20,8,0,0.01
2013-6-13,68.0,62.1,54.3,58.6,54.1,48.3,83,75,62,0.00,0.00,17,6,0,0.37
2013-6-14,79.7,60.3,48.9,49.8,46.7,41.7,84,64,30,0.00,0.00,13,3,0,0.00
2013-6-15,74.8,62.7,53.4,50.6,45.1,34.0,80,56,26,0.00,0.00,25,8,0,0.00
2013-6-16,85.1,65.9,52.5,51.3,45.8,42.7,74,51,29,0.00,0.00,12,3,0,0.00
2013-6-17,84.2,68.8,60.3,66.7,55.4,49.5,75,63,44,0.00,0.00,17,5,0,0.07
2013-6-18,87.8,75.9,63.3,63.4,57.9,52.6,78,56,31,0.00,0.00,9,2,0,0.00
2013-6-19,83.8,70.9,64.4,64.0,60.1,57.1,82,70,44,0.00,0.00,38,8,0,0.65
2013-6-20,76.8,68.4,61.7,62.8,58.0,51.3,87,71,46,0.00,0.00,18,5,0,0.52
2013-6-21,68.7,61.9,58.8,57.0,53.9,50.6,85,76,55,0.00,0.00,17,8,0,0.20
2013-6-22,67.6,62.6,59.4,55.6,52.1,46.5,82,69,49,0.00,0.00,28,12,0,0.01
2013-6-23,68.4,60.0,55.0,52.5,47.5,44.5,78,64,46,0.00,0.00,23,12,0,0.24
2013-6-24,67.8,58.7,51.8,48.3,43.5,36.9,77,59,34,0.00,0.00,17,8,0,0.00
2013-6-25,69.4,57.5,44.2,45.7,40.3,35.3,78,56,30,0.00,0.00,16,4,0,0.00
2013-6-26,71.4,59.4,48.0,44.8,41.0,36.1,79,54,29,0.00,0.00,16,4,0,0.00
2013-6-27,70.5,62.6,53.2,50.2,44.6,39.3,78,54,35,0.00,0.00,11,4,0,0.04
2013-6-28,64.4,59.7,55.2,55.1,50.6,44.6,82,72,57,0.00,0.00,11,2,0,0.18
2013-6-29,74.7,63.7,57.4,56.3,49.3,38.1,87,63,27,0.00,0.00,18,8,0,0.05
2013-6-30,80.6,66.1,49.8,52.9,47.0,42.4,77,53,30,0.00,0.00,11,3,0,0.00
2013-7-1,78.8,68.5,57.4,55.9,52.7,49.2,75,59,37,0.00,0.00,9,2,0,0.01
2013-7-2,84.2,70.6,57.7,56.8,53.5,49.9,77,57,31,0.00,0.00,13,3,0,0.00
2013-7-3,71.6,64.0,58.8,59.3,53.9,48.6,82,70,55,0.00,0.00,21,8,0,0.06
2013-7-4,76.3,64.8,53.6,55.8,51.2,46.0,81,63,39,0.00,0.00,12,3,0,0.00
2013-7-5,82.8,67.1,32.2,56.3,51.2,15.2,81,60,30,0.00,0.00,15,4,0,0.00
2013-7-6,87.6,72.5,57.9,58.3,54.4,51.6,82,56,33,0.00,0.00,16,4,0,0.00
2013-7-7,87.3,76.0,63.9,58.6,55.3,48.6,80,52,30,0.00,0.00,21,7,0,0.00
2013-7-8,88.2,74.9,62.1,56.3,52.5,47.2,71,48,27,0.00,0.00,15,9,0,6.00
2013-7-9,86.5,75.7,63.1,57.5,53.6,45.7,73,49,25,0.00,0.00,16,10,0,0.00
2013-7-10,82.8,72.8,61.2,56.2,53.5,49.3,74,52,33,0.00,0.00,19,10,0,0.00
2013-7-11,73.9,64.4,54.5,54.5,47.1,42.6,78,56,36,0.00,0.00,18,11,0,0.00
2013-7-12,78.3,67.6,53.8,51.2,48.6,46.4,81,53,34,0.00,0.00,15,8,0,6.05
2013-7-13,77.0,66.0,56.3,52.3,49.8,46.9,82,58,37,0.00,0.00,17,8,0,0.01
2013-7-14,86.4,71.5,56.8,56.0,51.0,47.4,79,52,29,0.00,0.00,13,4,0,0.01
2013-7-15,87.6,75.9,62.6,58.0,54.6,49.0,72,50,30,0.00,0.00,10,2,0,0.00
2013-7-16,86.5,75.9,64.6,56.8,51.5,45.4,68,45,25,0.00,0.00,13,4,0,0.00
2013-7-17,88.7,76.2,63.7,55.8,52.7,47.4,71,47,26,0.00,0.00,14,5,0,0.00
2013-7-18,89.2,76.5,64.8,58.7,54.5,49.6,74,50,27,0.00,0.00,19,7,0,0.00
2013-7-19,89.6,78.3,66.6,60.9,55.3,48.0,73,48,24,0.00,0.00,18,9,0,0.01
2013-7-20,88.9,73.9,32.0,57.7,45.0,-76.0,67,43,28,0.00,0.00,15,8,0,0.00
2013-7-21,94.3,80.8,66.9,60.9,56.0,46.5,69,45,21,0.00,0.00,11,3,0,0.01
2013-7-22,95.9,83.0,70.2,60.4,56.3,47.7,63,42,20,0.00,0.00,15,3,0,0.00
2013-7-23,93.4,79.1,69.3,61.4,57.5,51.1,66,49,24,0.00,0.00,12,3,0,0.01
2013-7-24,87.8,75.1,66.7,61.5,57.2,52.9,77,56,31,0.00,0.00,9,3,0,0.00
2013-7-25,89.8,78.7,66.4,62.0,56.3,49.1,77,50,26,0.00,0.00,15,4,0,0.00
2013-7-26,88.2,78.0,69.3,65.8,61.4,57.2,81,58,37,0.00,0.00,13,4,0,0.28
2013-7-27,91.9,78.7,66.9,65.4,61.3,55.1,84,58,31,0.00,0.00,24,5,0,0.68
2013-7-28,82.6,73.5,66.0,58.7,53.8,46.3,73,53,30,0.00,0.00,25,4,0,0.00
2013-7-29,81.5,71.0,61.9,58.4,53.0,44.7,79,56,30,0.00,0.00,20,6,0,0.00
2013-7-30,78.3,70.5,63.3,56.8,53.6,48.1,72,56,37,0.00,0.00,23,10,0,0.00
2013-7-31,89.8,73.9,65.3,59.2,56.9,54.2,77,57,33,0.00,0.00,15,5,0,0.00
2013-8-1,97.2,81.2,64.9,59.0,55.2,47.6,76,46,20,0.00,0.00,14,5,0,0.00
2013-8-2,94.8,79.5,69.8,58.9,56.1,49.8,67,47,24,0.00,0.00,19,5,0,0.00
2013-8-3,82.6,73.9,65.1,62.1,51.5,41.7,74,49,25,0.00,0.00,16,5,0,0.03
2013-8-4,84.2,72.7,60.3,53.1,47.4,37.0,71,45,20,0.00,0.00,19,4,0,0.00
2013-8-5,89.4,74.7,58.6,54.5,51.0,48.6,71,46,27,0.00,0.00,19,4,0,0.00
2013-8-6,80.8,71.4,61.3,55.4,50.8,47.1,68,49,32,0.00,0.00,11,2,0,0.00
2013-8-7,71.8,65.9,61.9,60.4,56.7,53.1,82,73,58,0.00,0.00,11,2,0,0.24
2013-8-8,76.6,66.6,58.1,56.2,50.7,44.7,85,60,33,0.00,0.00,17,5,0,0.00
2013-8-9,81.9,67.1,56.8,56.0,50.9,44.3,78,59,28,0.00,0.00,17,4,0,0.00
2013-8-10,76.6,68.2,58.1,55.4,46.4,40.2,73,47,29,0.00,0.00,15,4,0,0.00
2013-8-11,79.0,66.1,51.8,52.0,45.4,41.2,71,50,28,0.00,0.00,14,3,0,0.24
2013-8-12,75.6,67.1,59.7,53.9,49.0,40.9,74,54,34,0.00,0.00,21,6,0,0.00
2013-8-13,74.3,64.1,53.1,48.9,42.7,37.8,73,48,27,0.00,0.00,14,5,0,0.00
2013-8-14,77.4,63.9,50.0,51.4,43.1,38.5,72,50,28,0.00,0.00,10,1,0,0.00
2013-8-15,83.1,68.2,53.6,53.2,46.4,41.5,74,50,25,0.00,0.00,10,2,0,0.00
2013-8-16,87.4,72.4,55.8,51.6,46.4,39.7,71,44,20,0.00,0.00,17,4,0,0.00
2013-8-17,83.8,73.0,60.8,56.2,51.0,48.0,70,48,30,0.00,0.00,19,6,0,0.00
2013-8-18,77.2,70.4,66.7,61.8,57.1,52.2,83,63,46,0.00,0.00,19,8,0,0.14
2013-8-19,74.8,67.2,57.9,60.7,51.2,38.0,86,60,31,0.00,0.00,20,6,0,0.00
2013-8-20,77.2,64.4,49.6,49.0,44.4,40.0,74,52,27,0.00,0.00,11,2,0,0.00
2013-8-21,80.8,68.7,53.2,49.5,45.0,41.1,72,46,25,0.00,0.00,11,3,0,0.00
2013-8-22,84.4,69.2,58.5,50.1,47.1,41.3,69,48,23,0.00,0.00,17,4,0,0.00
2013-8-23,86.5,71.4,56.3,50.1,47.4,38.8,71,46,20,0.00,0.00,11,2,0,0.00
2013-8-24,74.5,69.1,63.5,54.6,50.0,47.1,62,51,41,0.00,0.00,17,8,0,0.00
2013-8-25,63.5,58.4,55.0,53.7,52.0,49.3,85,79,61,0.00,0.00,13,5,0,0.70
2013-8-26,73.6,61.2,51.3,57.4,52.8,47.2,87,75,48,0.00,0.00,19,4,0,0.04
2013-8-27,76.1,65.3,59.0,58.4,53.5,49.2,80,67,40,0.00,0.00,14,4,0,0.05
2013-8-28,76.6,66.7,57.7,55.8,49.3,37.6,84,58,25,0.00,0.00,13,5,0,0.01
2013-8-29,76.8,65.0,54.7,54.8,49.2,43.8,83,60,33,0.00,0.00,13,2,0,0.00
2013-8-30,78.8,65.7,53.1,51.9,47.5,42.2,77,55,28,0.00,0.00,12,2,0,0.00
2013-8-31,75.6,65.6,55.9,59.1,52.0,47.8,81,63,44,0.00,0.00,12,4,0,0.14
2013-9-1,70.2,61.1,50.0,50.2,42.0,37.8,72,52,31,0.00,0.00,16,4,0,0.00
2013-9-2,75.0,62.7,48.0,49.5,44.8,38.8,75,55,30,0.00,0.00,14,3,0,0.00
2013-9-3,80.1,66.9,52.5,51.9,47.6,43.2,78,54,28,0.00,0.00,10,2,0,0.00
2013-9-4,87.8,72.1,58.3,57.3,52.2,46.5,77,53,24,0.00,0.00,14,3,0,0.00
2013-9-5,91.0,74.6,60.8,55.4,51.4,43.0,74,49,20,0.00,0.00,12,3,0,0.00
2013-9-6,76.8,68.9,61.9,56.9,53.0,48.3,71,58,38,0.00,0.00,14,4,0,0.01
2013-9-7,71.8,66.7,62.1,48.0,41.7,34.9,60,42,26,0.00,0.00,8,2,0,0.00
2013-9-8,72.5,63.8,54.1,51.8,43.0,34.3,76,50,26,0.00,0.00,13,2,0,0.00
2013-9-9,61.9,56.7,49.6,57.1,48.0,38.9,88,73,52,0.00,0.00,15,5,0,0.50
2013-9-10,65.1,57.8,50.7,52.2,45.8,39.6,86,66,39,0.00,0.00,20,7,0,0.01
2013-9-11,62.8,57.0,54.3,49.6,47.3,43.5,80,70,57,0.00,0.00,19,9,0,0.01
2013-9-12,65.8,58.4,53.2,53.2,49.9,45.8,84,74,57,0.00,0.00,11,2,0,0.00
2013-9-13,65.7,60.4,55.8,60.7,55.9,51.9,89,85,77,0.00,0.00,14,4,0,0.22
2013-9-14,63.3,59.5,55.4,60.3,55.4,51.4,91,86,78,0.00,0.00,17,6,0,0.56
2013-9-15,65.5,58.3,50.9,52.7,47.0,39.7,89,68,40,0.00,0.00,20,9,0,0.04
2013-9-16,63.1,55.7,48.2,52.7,46.6,38.5,89,73,42,0.00,0.00,27,8,0,0.20
2013-9-17,61.3,53.2,44.6,58.4,46.7,40.7,90,79,51,0.00,0.00,23,9,0,0.18
2013-9-18,62.2,58.7,55.4,58.6,52.5,47.4,90,80,66,0.00,0.00,23,9,0,0.20
2013-9-19,64.2,56.1,47.3,49.3,45.2,40.2,87,69,44,0.00,0.00,17,4,0,0.00
2013-9-20,69.1,61.1,55.9,53.2,49.2,43.5,87,68,41,0.00,0.00,12,5,0,0.00
2013-9-22,62.6,61.8,61.3,53.1,52.8,52.6,73,72,71,0.00,0.00,0,0,0,0.00
2013-9-23,73.9,64.5,57.0,53.9,51.9,48.9,80,65,42,0.00,0.00,10,2,0,0.00
2013-9-24,74.5,61.6,51.4,54.3,50.6,47.1,86,69,40,0.00,0.00,10,2,0,0.00
2013-9-25,77.4,63.1,51.1,57.6,51.7,45.5,82,68,40,0.00,0.00,9,1,0,0.00
2013-9-26,73.6,65.7,59.0,56.9,53.8,50.0,82,67,45,0.00,0.00,11,3,0,0.00
2013-9-27,74.8,64.7,57.0,55.8,53.1,50.6,82,67,44,0.00,0.00,12,4,0,3.46
2013-9-28,74.5,65.0,59.5,57.7,55.2,52.8,82,71,53,0.00,0.00,21,5,0,0.07
2013-9-29,72.7,64.3,59.4,60.4,57.2,54.5,87,78,57,0.00,0.00,10,2,0,0.01
2013-9-30,66.2,61.1,57.4,58.2,53.4,50.8,85,76,66,0.00,0.00,10,2,0,0.01
2013-10-1,68.0,61.3,57.7,55.2,52.3,48.4,85,73,54,0.00,0.00,11,3,0,0.01
2013-10-2,73.0,63.0,56.1,58.7,54.0,48.3,86,73,57,0.00,0.00,10,4,0,0.01
2013-10-3,75.9,65.2,57.2,60.4,55.0,49.0,82,70,54,0.00,0.00,16,7,0,0.01
2013-10-4,70.9,65.6,61.9,60.0,57.7,55.5,87,76,59,0.00,0.00,16,5,0,0.09
2013-10-5,66.4,62.0,57.7,56.5,52.6,48.6,85,72,53,0.00,0.00,14,4,0,0.00
2013-10-6,67.1,59.1,52.2,53.8,49.5,44.7,88,72,45,0.00,0.00,7,1,0,3.69
2013-10-7,68.7,60.3,54.0,52.3,49.4,45.8,84,69,45,0.00,0.00,11,1,0,3.69
2013-10-8,66.9,59.1,51.1,51.1,47.8,44.5,80,67,45,0.00,0.00,12,2,0,0.00
2013-10-9,64.0,59.3,54.7,55.1,51.9,48.3,87,77,58,0.00,0.00,15,2,0,0.23
2013-10-10,56.3,50.1,44.2,51.5,40.2,33.8,84,69,49,0.00,0.00,26,12,0,0.06
2013-10-11,52.0,48.4,46.0,45.1,41.5,38.2,86,77,68,0.00,0.00,22,5,0,0.28
2013-10-12,56.7,47.6,40.8,42.9,40.3,35.6,89,77,49,0.00,0.00,16,4,0,0.02
2013-10-13,54.3,46.4,39.2,41.1,38.5,34.8,91,75,54,0.00,0.00,21,8,0,0.00
2013-10-14,59.2,52.1,45.3,52.0,46.5,39.8,89,81,67,0.00,0.00,17,9,0,0.21
2013-10-15,60.3,53.0,46.8,50.4,47.6,42.6,90,82,63,0.00,0.00,12,7,0,0.01
2013-10-16,57.9,49.1,40.3,55.0,45.7,37.0,92,88,83,0.00,0.00,3,3,0,0.27
2013-10-17,64.2,52.4,46.2,51.9,47.9,44.8,95,86,59,0.00,0.00,12,4,0,0.01
2013-10-18,59.5,52.6,47.8,51.4,48.0,45.3,91,85,69,0.00,0.00,16,7,0,0.00
2013-10-19,67.1,55.9,48.0,56.3,50.9,45.1,90,84,64,0.00,0.00,16,11,0,0.00
2013-10-20,66.7,58.8,55.2,56.0,54.2,51.3,92,85,66,0.00,0.00,13,13,0,0.36
2013-10-21,67.5,59.9,54.1,57.7,54.0,51.0,90,82,61,0.00,0.00,13,10,0,0.01
2013-10-22,73.0,62.3,56.7,56.8,55.0,52.1,90,78,50,0.00,0.00,20,6,0,0.08
2013-10-23,67.1,61.8,56.1,56.0,52.1,47.9,83,71,51,0.00,0.00,21,6,0,0.00
2013-10-24,63.5,57.9,54.7,53.5,51.1,49.5,88,79,61,0.00,0.00,11,5,0,0.00
2013-10-25,67.1,60.6,56.8,58.2,54.9,50.2,89,82,69,0.00,0.00,8,8,0,0.51
2013-10-26,67.6,62.2,59.7,61.0,57.4,54.0,91,85,72,0.00,0.00,18,9,0,0.10
2013-10-27,61.7,58.2,56.1,54.0,50.1,45.7,87,75,57,0.00,0.00,26,12,0,0.51
2013-10-28,62.4,57.5,49.8,53.9,47.1,41.9,87,69,49,0.00,0.00,23,16,0,0.15
2013-10-29,57.2,49.2,41.0,43.1,39.9,35.5,86,72,45,0.00,0.00,19,9,0,0.00
2013-10-30,54.5,44.2,37.8,41.7,37.6,34.0,88,78,57,0.00,0.00,10,2,0,0.01
2013-10-31,55.2,45.9,36.3,41.5,37.5,32.8,90,74,52,0.00,0.00,18,5,0,0.00
2013-11-1,50.2,48.6,47.3,45.9,43.5,39.5,90,83,67,0.00,0.00,16,9,0,0.76
2013-11-2,60.6,55.2,48.6,55.3,49.7,45.0,91,82,64,0.00,0.00,22,9,0,0.25
2013-11-3,72.3,49.7,46.0,60.3,40.6,35.6,87,71,52,0.00,0.00,26,10,0,0.10
2013-11-4,56.1,49.7,38.7,50.4,44.1,34.8,89,81,62,0.00,0.00,30,18,0,0.93
2013-11-5,52.2,44.6,35.8,48.8,40.5,32.3,91,86,74,0.00,0.00,14,14,0,0.32
2013-11-6,68.5,57.8,50.0,52.6,49.0,42.9,89,74,46,0.00,0.00,18,13,0,0.11
2013-11-7,62.4,57.9,54.3,53.6,51.7,49.9,87,80,68,0.00,0.00,36,15,0,0.22
2013-11-8,56.5,53.3,47.5,52.0,48.6,40.1,88,84,72,0.00,0.00,36,36,0,0.28
2013-11-9,50.9,46.1,41.5,44.6,41.6,38.5,90,84,71,0.00,0.00,36,24,0,0.23
2013-11-10,49.5,44.8,36.3,43.6,36.8,28.6,91,75,45,0.00,0.00,23,11,0,0.63
2013-11-11,49.1,40.5,31.6,37.7,33.2,27.6,87,76,57,0.00,0.00,16,6,0,0.00
2013-11-12,51.3,47.3,44.1,45.7,40.4,36.0,89,77,67,0.00,0.00,14,4,0,0.08
2013-11-13,50.5,44.7,35.2,44.9,38.1,30.9,89,78,55,0.00,0.00,16,2,0,0.03
2013-11-14,47.8,39.5,31.3,44.6,35.2,27.6,90,85,74,0.00,0.00,13,2,0,0.21
2013-11-15,49.1,43.9,39.2,39.6,36.5,34.8,84,75,62,0.00,0.00,23,9,0,0.00
2013-11-16,39.0,37.1,34.0,35.0,32.4,30.4,91,83,73,0.00,0.00,13,13,0,0.00
2013-11-17,42.3,40.1,37.9,35.4,34.3,32.6,85,80,74,0.00,0.00,13,13,0,0.01
2013-11-18,47.1,41.6,35.4,39.3,36.1,31.1,85,81,70,0.00,0.00,13,13,0,0.00
2013-11-19,44.2,39.6,33.8,40.9,32.4,28.0,89,76,53,0.00,0.00,13,13,0,0.03
2013-11-20,42.8,37.7,33.8,36.4,30.6,23.2,89,76,46,0.00,0.00,25,14,0,0.25
2013-11-21,41.2,36.6,34.2,34.9,32.4,29.1,91,85,68,0.00,0.00,17,13,0,0.04
2013-11-22,40.5,38.0,34.9,34.4,31.1,28.5,87,76,68,0.00,0.00,8,8,0,0.00
2013-11-23,42.6,41.2,40.1,34.9,33.7,32.5,80,75,70,0.00,0.00,8,8,0,0.00
2013-11-24,44.6,40.7,33.4,38.6,33.6,30.0,87,76,66,0.00,0.00,16,8,0,0.00
2013-11-25,44.4,41.7,39.6,34.7,33.0,30.8,78,71,59,0.00,0.00,8,8,0,0.00
2013-11-26,43.3,40.5,36.9,36.0,33.9,30.0,88,77,61,0.00,0.00,8,8,0,0.01
2013-11-27,44.8,40.9,34.5,36.9,33.2,28.2,84,75,55,0.00,0.00,9,5,0,0.00
2013-11-28,43.9,38.2,30.9,40.3,31.3,25.2,89,76,51,0.00,0.00,1,1,0,0.01
2013-11-29,48.6,45.4,43.3,44.5,41.4,38.7,92,86,71,0.00,0.00,1,1,0,0.01
2013-11-30,47.5,43.5,38.8,39.7,35.1,32.5,79,72,62,0.00,0.00,1,1,0,0.00
2013-12-1,44.8,41.8,38.8,37.8,36.4,34.4,89,81,71,0.00,0.00,1,1,0,0.00
2013-12-2,47.7,41.1,32.4,37.5,32.7,26.9,85,73,52,0.00,0.00,19,6,0,0.00
2013-12-3,41.5,32.9,28.2,33.7,26.8,22.1,82,78,68,0.00,0.00,7,4,0,0.00
2013-12-4,44.1,37.5,28.6,36.5,31.8,23.5,85,80,73,0.00,0.00,8,1,0,0.00
2013-12-5,71.2,43.2,41.2,39.6,35.4,27.7,87,75,50,0.00,0.00,21,7,0,0.02
2013-12-6,45.9,42.6,37.8,40.3,30.5,24.1,83,63,42,0.00,0.00,20,10,0,0.01
2013-12-7,46.6,41.6,38.8,37.8,33.7,29.2,82,74,66,0.00,0.00,4,1,0,0.00
2013-12-8,49.6,41.2,32.5,36.2,32.8,26.5,78,72,51,0.00,0.00,8,3,0,0.00
2013-12-9,41.5,32.8,27.9,32.3,26.1,21.6,80,76,65,0.00,0.00,4,1,0,0.00
2013-12-10,42.4,31.3,25.2,31.0,24.7,19.3,82,76,61,0.00,0.00,6,1,0,0.00
2013-12-11,39.0,29.0,23.4,30.0,22.1,17.5,81,75,58,0.00,0.00,5,1,0,0.00
2013-12-12,37.4,29.1,22.5,29.2,23.1,16.1,84,78,70,0.00,0.00,6,1,0,0.00
2013-12-13,39.4,32.0,24.8,35.9,27.5,20.4,89,83,74,0.00,0.00,8,2,0,0.05
2013-12-14,44.6,39.8,34.7,41.9,37.1,32.6,94,90,85,0.00,0.00,18,6,0,0.06
2013-12-15,47.8,41.3,38.3,37.0,32.7,27.8,88,72,58,0.00,0.00,18,8,0,0.00
2013-12-16,49.1,40.1,33.6,36.0,29.6,25.1,77,66,46,0.00,0.00,8,4,0,0.00
2013-12-17,48.9,41.4,16.0,36.8,30.4,6.3,75,65,49,0.00,0.00,12,4,0,0.00
2013-12-18,51.3,47.1,44.6,43.1,39.4,36.8,81,75,63,0.00,0.00,13,8,0,0.00
2013-12-19,51.1,44.9,35.8,44.6,39.1,31.1,88,80,62,0.00,0.00,19,7,0,0.56
2013-12-20,44.4,37.6,32.4,37.2,32.8,28.7,88,83,71,0.00,0.00,12,4,0,0.07
2013-12-21,43.5,39.6,36.1,36.8,29.6,23.5,87,68,47,0.00,0.00,21,13,0,0.00
2013-12-22,48.9,45.9,40.5,44.3,41.0,30.6,87,83,67,0.00,0.00,13,13,0,0.52
2013-12-23,51.6,47.7,41.4,43.6,40.2,35.1,89,76,56,0.00,0.00,13,13,0,0.01
2013-12-24,51.6,49.5,47.3,46.4,42.0,35.2,88,76,54,0.00,0.00,13,13,0,1.07
2013-12-25,49.8,45.4,40.6,46.1,39.4,35.6,87,80,70,0.00,0.00,13,11,0,0.07
2013-12-26,47.5,41.4,37.0,38.4,35.0,31.3,87,79,57,0.00,0.00,15,7,0,0.00
2013-12-27,54.0,47.4,37.4,47.6,41.5,33.6,87,80,71,0.00,0.00,6,6,0,0.27
2013-12-28,52.2,46.3,39.2,45.5,40.3,31.5,87,79,61,0.00,0.00,6,6,0,0.24
2013-12-29,46.4,40.7,35.4,36.4,34.4,31.3,86,79,65,0.00,0.00,9,5,0,0.00
2013-12-30,43.7,38.8,33.8,37.4,33.8,30.6,91,83,69,0.00,0.00,17,9,0,0.05
2013-12-31,48.6,44.0,41.4,39.7,31.5,24.4,84,63,39,0.00,0.00,18,12,0,0.08
2014-1-1,50.9,45.9,41.4,42.0,38.9,37.1,87,77,66,0.00,0.00,13,9,0,0.10
2014-1-2,51.8,48.5,45.7,43.2,40.5,37.7,83,74,61,0.00,0.00,18,9,0,0.12